Location: Keppel Henge
(44.7900°N, 80.9447°W)
Time: 14:48:22
(UTC-04:00)

ISS - Pass Details

Date: 09 October 2017
Orbit: 401 x 408 km, 51.6° (Epoch: 18 October)

Event Time Altitude Azimuth Distance (km) Brightness Sun altitude
Rises 20:32:47 0° 301° (WNW) 2,327 1.3 -19.2°
Reaches altitude 10° 20:34:54 10° 305° (NW) 1,466 0.0 -19.5°
Enters shadow 20:37:54 55° 4° (N) 497 -3.5 -20.1°
